Regional Weather Roundup
Issued by NWS

Home | Current Version | Previous Version | Graphics & Text | Print | Product List | Glossary On
Versions: 1 2 3 4 5 6 7 8 9 10 11 12 13 14 15 16 17 18 19 20 21 22 23 24 25 26 27 28 29 30 31 32 33 34 35 36 37 38 39 40 41 42 43 44 45 46 47 48 49 50
000
ASUS43 KIND 281809
RWRIN

WEATHER ROUNDUP FOR INDIANA
NATIONAL WEATHER SERVICE INDIANAPOLIS IN
200 PM EDT THU AUG 28 2014

NOTE: "FAIR" INDICATES FEW OR NO CLOUDS BELOW 12,000 FEET WITH NO
SIGNIFICANT WEATHER AND/OR OBSTRUCTIONS TO VISIBILITY.

* - STATION DOES NOT REPORT WEATHER SUCH AS PRECIPITATION OR FOG.

+ - STATION NOT QUALITY CONTROLLED BY THE NATIONAL WEATHER SERVICE.
    USE DATA WITH CAUTION...ESPECIALLY DEWPOINT AND RELATIVE
    HUMIDITY OBSERVATIONS.

INZ001>003-010>013-019-020-281900-
NORTHWEST INDIANA

CITY           SKY/WX    TMP DP  RH WIND       PRES   REMARKS
GARY /AIRPORT/ MOSUNNY   75  61  60 NE8       30.12F
KNOX *+        MOSUNNY   77  61  58 SE5       30.10F
LA PORTE +     SUNNY     75  60  60 CALM      30.12F
6HR MIN TEMP:  59; 6HR MAX TEMP:  76;

MICHIGAN CITY+ MOSUNNY   73  61  64 N7        30.11F
MONTICELLO +   MOSUNNY   77  64  63 CALM      30.08F
RENSSELAER +   MOSUNNY   77  66  69 E3        30.10F
VALPARAISO     SUNNY     77  61  57 CALM      30.11F
6HR MIN TEMP:  58; 6HR MAX TEMP:  77;


$$

LMZ046-743>745-281900-
SOUTHERN LAKE MICHIGAN

STATION/POSITION TIME  TEMP WIND        PRES
                       AIR  DIR/SP/G
                 (UTC) (F)  (DEG/KT/KT) (MB)
MICHIGAN CITY    1800   68  360/  9/ 10   N/A

$$

INZ004-005-014>016-021>024-281900-
NORTH CENTRAL INDIANA

CITY           SKY/WX    TMP DP  RH WIND       PRES   REMARKS
ELKHART        PTSUNNY   75  59  57 CALM      30.13
GOSHEN         MOSUNNY   78  61  55 VRB3      30.12F
6HR MIN TEMP:  60; 6HR MAX TEMP:  79;

LOGANSPORT +   SUNNY     79  59  50 E3        30.11F
PERU/GRISSOM   SUNNY     78  67  67 SE6       30.10F
6HR MIN TEMP:  63; 6HR MAX TEMP:  79;

ROCHESTER +    PTSUNNY   81  63  54 CALM      30.11F
SOUTH BEND     MOSUNNY   78  59  51 SE5       30.12F
6HR MIN TEMP:  60; 6HR MAX TEMP:  78;

WARSAW +       PTSUNNY   73  63  68 CALM      30.12F

$$

INZ006>009-017-018-025>027-281900-
NORTHEAST INDIANA

CITY           SKY/WX    TMP DP  RH WIND       PRES   REMARKS
ANGOLA *+      MOSUNNY   75  70  83 SE6       30.13F
AUBURN +       MOSUNNY   75  55  50 CALM      30.13F
FORT WAYNE     PTSUNNY   75  63  66 E5        30.13S
6HR MIN TEMP:  62; 6HR MAX TEMP:  76;

HUNTINGTON +   PTSUNNY   76  65  67 E7        30.11F
6HR MIN TEMP:  60; 6HR MAX TEMP:  76;


$$

INZ028-029-035-036-043>045-051>053-281900-
WEST CENTRAL INDIANA

CITY           SKY/WX    TMP DP  RH WIND       PRES   REMARKS
GREENCASTLE +  MOSUNNY   79  68  69 E6        30.08F
LAFAYETTE      MOSUNNY   78  66  66 CALM      30.08F
6HR MIN TEMP:  63; 6HR MAX TEMP:  78;

TERRE HAUTE    MOSUNNY   81  67  62 SE6       30.06F
6HR MIN TEMP:  67; 6HR MAX TEMP:  82;


$$

INZ030>032-037>040-046>048-054>057-064-065-281900-
CENTRAL INDIANA

CITY           SKY/WX    TMP DP  RH WIND       PRES   REMARKS
ANDERSON       PTSUNNY   79  64  61 E12       30.11F
CP ATTERBURY + MOSUNNY   82  64  54 E5        30.08S
COLUMBUS       SUNNY     82  66  57 CALM      30.07F
FRANKFORT +    PTSUNNY   79  67  67 SE3       30.11F
GREENWOOD *+   MOSUNNY   81  70  69 CALM      30.09
INDIANAPOLIS   MOSUNNY   80  65  59 VRB3      30.08S
6HR MIN TEMP:  67; 6HR MAX TEMP:  80;

-EAGLE CREEK   MOSUNNY   80  64  58 E6        30.08F
6HR MIN TEMP:  67; 6HR MAX TEMP:  80;

KOKOMO *+      MOSUNNY   79  63  57 SE8       30.10F
MARION +       SUNNY     78  60  53 SE5       30.11S
MT COMFORT *+  SUNNY     79  63  57 SE3       30.09F
SHELBYVILLE    MOSUNNY   81  67  62 SE7       30.08F
6HR MIN TEMP:  67; 6HR MAX TEMP:  82;

ZIONSVILLE +   PTSUNNY   80  63  54 SE5       30.10S
6HR MIN TEMP:  65; 6HR MAX TEMP:  81;


$$

INZ033-034-041-042-049-050-058-059-281900-
EAST CENTRAL INDIANA

CITY           SKY/WX    TMP DP  RH WIND       PRES   REMARKS
MUNCIE         MOSUNNY   78  64  61 E9        30.10F

$$

INZ060-061-067>069-081>083-085>088-281900-
SOUTHWEST INDIANA

CITY           SKY/WX    TMP DP  RH WIND       PRES   REMARKS
EVANSVILLE     SUNNY     89  72  56 SE3       30.03F THUNDER HX  96
6HR MIN TEMP:  75; 6HR MAX TEMP:  90;

WASHINGTON +   SUNNY     87  71  59 CALM      30.03F
6HR MIN TEMP:  70; 6HR MAX TEMP:  87;


$$

INZ062-063-066-070>080-084-089>092-281900-
SOUTH CENTRAL AND SOUTHEAST INDIANA

CITY           SKY/WX    TMP DP  RH WIND       PRES   REMARKS
BEDFORD +      MOSUNNY   86  66  51 NE5       30.05
BLOOMINGTON    MOSUNNY   83  66  56 VRB5      30.07F
6HR MIN TEMP:  68; 6HR MAX TEMP:  85;

NORTH VERNON + MOSUNNY   84  66  54 CALM      30.08

$$




USA.gov is the U.S. government's official web portal to all federal, state and local government web resources and services.